Location: Camerons Lookout
(40.9833°S, 175.9333°E)
Time: 08:10:09
(UTC+00:00)

CZ-2C R/B - Pass Details

Date: 14 January 2026
Orbit: 702 x 901 km, 98.2° (Epoch: 16 February)

Event Time Altitude Azimuth Distance (km) Brightness Sun altitude
Exits shadow 11:13:15 47° 89° (E) 1,067 3.5 -25.5°
Maximum altitude 11:13:47 49° 108° (ESE) 1,040 3.6 -25.6°
Drops below altitude 10° 11:18:47 10° 182° (S) 2,355 6.5 -25.9°
Sets 11:21:07 0° 187° (S) 3,260 7.5 -26.0°
